Temp
9 10 10 11 11 11 10 11 11 11 11 10 10 10 10 10 10 10 10 10 10 9 9 9 8 8 7 8 8 8 9 9 9 9 8 8 7 7 7 7 6 6 5
9 9 10 10 11 11 10 10 10 9 8 8 9 9 9 10 10 9 9 9 9 8 8 8 8 8 7 7 8 9 9 8 8 8 7 7 7 6 6 5 5 5 4
8 9 9 9 9 9 10 10 9 9 9 9 9 9 9 9 10 9 9 9 8 8 8 9 9 8 8 8 8 8 9 8 7 7 6 6 6 5 5 5 4 3 3
9 9 9 8 9 9 9 9 9 9 9 9 9 9 9 9 9 9 8 9 8 9 9 8 8 7 7 7 8 8 8 7 6 6 6 6 5 5 4 4 3 2 2
9 10 10 9 9 9 9 9 8 8 9 9 9 9 9 8 8 8 8 8 8 8 8 7 7 7 7 7 7 7 6 6 6 5 5 5 4 4 4 3 2 2 1
9 9 8 8 8 9 8 8 8 8 8 8 8 9 9 8 8 8 8 8 8 7 7 7 7 7 6 6 6 6 5 5 5 5 4 4 3 3 2 2 1 1 -0
9 9 8 8 8 8 8 8 8 7 7 8 8 8 8 8 8 8 8 7 7 7 7 7 6 6 6 6 5 5 5 4 4 3 3 3 2 2 1 1 0 -0 -1
9 9 8 8 8 7 7 7 7 7 7 7 7 7 7 7 7 7 7 7 6 6 6 6 6 5 5 4 4 3 3 3 3 2 2 1 1 0 -0 -1 -1 -2 -2
9 9 8 8 8 7 7 6 7 7 7 7 7 7 7 6 6 6 6 6 6 5 5 4 4 4 4 4 3 3 3 2 2 1 0 -0 -2 -2 -3 -3 -3 -3 -4
9 9 8 7 7 7 5 5 5 5 6 6 7 6 6 6 5 5 5 6 5 5 4 4 4 4 4 4 3 3 2 1 -1 -2 -3 -3 -4 -4 -5 -5 -5 -5 -5
9 8 8 7 7 5 5 5 5 5 5 5 6 5 5 5 5 5 5 5 6 5 5 4 4 4 3 3 2 1 -0 -1 -2 -3 -3 -3 -4 -4 -4 -5 -5 -5 -5
9 8 7 7 5 5 6 5 5 6 6 5 5 5 5 4 4 4 4 5 4 4 4 3 3 3 3 3 2 0 -2 -2 -3 -3 -3 -4 -4 -4 -5 -5 -5 -5 -5
8 8 7 6 5 5 6 6 5 5 6 6 6 6 5 4 4 4 4 4 4 4 4 3 3 2 1 0 -0 -2 -2 -3 -3 -4 -4 -4 -5 -5 -5 -5 -5 -5 -5
9 8 7 5 5 5 5 6 6 6 6 6 6 5 5 5 5 4 4 4 4 4 3 2 2 1 0 -0 -1 -2 -2 -3 -4 -4 -5 -5 -5 -5 -5 -5 -5 -6 -6
8 8 7 5 5 5 6 6 6 6 6 6 6 6 6 5 4 4 4 4 3 3 2 2 1 0 -0 -1 -2 -2 -3 -3 -4 -4 -5 -5 -6 -6 -6 -6 -6 -6 -6
8 7 6 5 5 6 6 5 5 5 5 4 4 5 4 4 5 4 4 3 3 2 2 1 1 -0 -1 -2 -2 -2 -3 -4 -4 -5 -5 -5 -6 -6 -6 -6 -6 -6 -7
7 6 5 6 6 6 6 6 6 4 4 4 4 4 4 4 4 4 4 3 3 2 1 1 0 -1 -1 -2 -2 -3 -4 -4 -4 -5 -5 -6 -7 -7 -6 -7 -7 -7 -7
6 6 5 7 6 7 7 7 7 7 6 5 4 4 4 4 4 4 4 3 3 2 1 1 -0 -1 -1 -1 -2 -3 -4 -4 -5 -5 -5 -6 -6 -7 -7 -7 -7 -7 -7
6 6 7 7 7 7 7 6 6 6 6 6 5 4 4 4 4 4 4 3 3 1 1 1 -0 -0 -1 -2 -2 -3 -3 -4 -5 -5 -6 -7 -7 -7 -7 -7 -7 -7 -8
7 8 8 7 7 7 7 6 6 6 6 6 6 5 5 4 5 5 4 3 2 1 1 1 -0 -0 -1 -2 -2 -3 -3 -4 -5 -6 -6 -7 -7 -7 -8 -8 -8 -8 -8
8 8 8 8 8 8 7 7 7 6 6 6 6 6 5 5 5 4 4 3 2 1 1 1 -0 -1 -1 -2 -2 -3 -3 -4 -5 -5 -6 -6 -6 -7 -7 -8 -8 -8 -8
9 9 8 8 8 8 8 8 7 7 7 6 6 6 5 5 4 4 3 3 2 1 1 0 -1 -1 -1 -2 -2 -2 -3 -3 -4 -5 -5 -5 -6 -7 -8 -9 -9 -9 -9
9 9 9 8 8 8 8 8 7 7 7 6 6 6 6 5 4 4 3 2 2 1 1 -0 -1 -1 -1 -1 -2 -2 -2 -3 -3 -4 -4 -5 -5 -5 -8 -9 -9 -10 -10
10 10 9 9 9 9 9 8 8 7 7 7 6 6 6 5 4 4 3 2 2 1 1 -0 -1 -1 -1 -1 -1 -2 -2 -2 -2 -3 -3 -4 -5 -6 -7 -9 -9 -9 -10
10 10 10 10 9 9 9 8 8 8 7 7 7 6 6 5 4 4 3 2 2 1 1 -0 -0 -1 -1 -1 -1 -1 -2 -2 -2 -2 -3 -4 -5 -6 -7 -9 -10 -10 -10
10 10 10 10 10 9 9 9 8 8 8 7 7 6 6 5 4 4 3 3 2 1 1 0 -0 -0 -1 -1 -1 -1 -1 -2 -2 -2 -3 -4 -5 -6 -7 -10 -10 -10 -10
Height
1480 1482 1483 1483 1484 1484 1485 1485 1484 1483 1482 1482 1483 1485 1488 1492 1496 1499 1501 1502 1505 1507 1513 1519 1526 1531 1536 1542 1545 1549 1552 1554 1555 1556 1557 1557 1557 1558 1558 1557 1558 1558 1558
1479 1480 1481 1481 1482 1483 1483 1483 1480 1478 1478 1478 1480 1482 1485 1490 1493 1496 1498 1500 1503 1506 1511 1517 1525 1530 1537 1541 1543 1546 1548 1549 1550 1551 1551 1551 1552 1552 1552 1553 1553 1554 1553
1478 1478 1478 1479 1480 1481 1482 1481 1480 1478 1477 1477 1477 1480 1483 1488 1491 1493 1495 1499 1503 1508 1514 1519 1525 1530 1535 1538 1540 1542 1543 1544 1545 1546 1547 1547 1547 1547 1548 1548 1548 1550 1551
1477 1477 1478 1479 1479 1480 1481 1481 1480 1479 1477 1477 1478 1481 1484 1488 1492 1494 1498 1501 1505 1510 1517 1522 1524 1530 1534 1535 1537 1538 1539 1541 1542 1542 1543 1543 1543 1543 1543 1545 1546 1547 1547
1476 1477 1478 1479 1480 1481 1481 1481 1481 1481 1480 1480 1483 1485 1488 1490 1493 1496 1501 1503 1508 1513 1517 1522 1525 1529 1531 1533 1534 1535 1536 1537 1538 1539 1540 1541 1541 1541 1541 1543 1543 1544 1544
1475 1477 1478 1479 1480 1481 1481 1482 1482 1484 1484 1484 1486 1489 1492 1495 1497 1500 1503 1506 1510 1513 1517 1520 1524 1527 1529 1530 1532 1533 1535 1536 1537 1539 1539 1539 1540 1539 1539 1540 1540 1540 1541
1475 1477 1479 1480 1481 1482 1484 1484 1485 1486 1487 1488 1490 1492 1494 1497 1499 1502 1505 1507 1510 1515 1519 1522 1525 1528 1530 1531 1532 1535 1535 1537 1538 1537 1538 1537 1537 1537 1537 1537 1536 1536 1537
1474 1476 1480 1482 1483 1485 1486 1487 1488 1489 1490 1491 1493 1495 1497 1500 1503 1506 1509 1511 1515 1519 1522 1525 1527 1529 1531 1532 1534 1534 1535 1535 1535 1535 1535 1535 1535 1534 1534 1533 1532 1533 1533
1473 1476 1480 1483 1485 1487 1489 1490 1492 1493 1494 1495 1498 1500 1502 1504 1508 1510 1513 1515 1518 1521 1524 1527 1528 1530 1532 1532 1533 1534 1533 1534 1533 1534 1534 1534 1533 1531 1530 1530 1530 1530 1529
1472 1476 1480 1483 1486 1488 1491 1493 1495 1498 1499 1501 1502 1504 1506 1507 1511 1514 1516 1518 1520 1523 1526 1527 1529 1532 1534 1534 1534 1533 1533 1534 1534 1534 1534 1534 1534 1532 1531 1530 1530 1530 1529
1471 1476 1479 1483 1487 1490 1492 1494 1497 1499 1501 1503 1505 1507 1509 1512 1514 1517 1520 1522 1523 1525 1529 1531 1532 1533 1533 1533 1533 1533 1533 1533 1534 1534 1534 1534 1534 1532 1531 1529 1529 1529 1529
1469 1474 1479 1484 1487 1490 1493 1495 1498 1501 1503 1505 1507 1509 1512 1515 1517 1519 1521 1524 1526 1528 1530 1532 1533 1534 1534 1533 1533 1532 1533 1533 1534 1534 1534 1533 1532 1531 1529 1528 1527 1527 1526
1467 1473 1478 1483 1487 1490 1493 1496 1499 1502 1505 1508 1510 1513 1515 1517 1520 1523 1525 1527 1528 1531 1532 1534 1534 1534 1534 1533 1533 1532 1533 1533 1533 1533 1532 1532 1530 1529 1527 1526 1525 1525 1524
1464 1470 1476 1481 1485 1490 1494 1498 1501 1503 1506 1509 1512 1514 1516 1519 1522 1524 1526 1528 1530 1532 1534 1534 1534 1534 1533 1533 1532 1532 1532 1531 1531 1531 1530 1529 1527 1526 1525 1524 1523 1522 1522
1462 1469 1475 1480 1484 1488 1494 1498 1502 1505 1508 1510 1513 1516 1518 1520 1523 1526 1528 1530 1531 1533 1534 1534 1534 1534 1533 1533 1532 1532 1531 1530 1530 1529 1528 1527 1526 1525 1524 1523 1522 1521 1520
1459 1466 1472 1477 1482 1487 1491 1495 1500 1506 1507 1510 1513 1517 1518 1522 1524 1526 1528 1530 1532 1533 1533 1534 1534 1534 1533 1533 1532 1532 1531 1530 1529 1528 1527 1525 1524 1523 1522 1522 1520 1519 1518
1457 1463 1469 1474 1480 1484 1489 1493 1496 1502 1506 1511 1514 1516 1520 1522 1525 1527 1529 1531 1533 1533 1534 1534 1534 1533 1532 1532 1532 1531 1531 1530 1529 1528 1526 1524 1524 1523 1522 1520 1519 1518 1516
1455 1461 1465 1471 1478 1483 1488 1493 1496 1500 1504 1508 1513 1516 1519 1522 1525 1527 1529 1531 1532 1533 1533 1533 1533 1532 1532 1532 1531 1530 1530 1529 1528 1527 1525 1524 1522 1521 1520 1519 1517 1516 1514
1450 1457 1463 1470 1477 1482 1487 1491 1497 1501 1505 1508 1511 1515 1519 1522 1524 1527 1529 1531 1532 1532 1532 1533 1533 1532 1532 1531 1531 1529 1529 1528 1527 1526 1525 1523 1522 1520 1519 1518 1517 1515 1514
1448 1455 1461 1467 1474 1479 1484 1489 1494 1499 1503 1507 1510 1514 1516 1519 1522 1525 1527 1529 1531 1531 1531 1532 1532 1532 1531 1531 1530 1529 1528 1527 1526 1525 1524 1523 1521 1519 1518 1517 1516 1514 1512
1443 1451 1458 1465 1471 1476 1482 1487 1491 1496 1501 1505 1509 1512 1515 1519 1521 1523 1526 1528 1530 1530 1531 1532 1532 1531 1531 1530 1529 1528 1527 1526 1525 1524 1523 1522 1520 1519 1517 1516 1514 1512 1510
1440 1446 1454 1461 1467 1473 1479 1484 1489 1494 1499 1503 1506 1510 1513 1516 1519 1522 1524 1527 1529 1530 1530 1531 1531 1530 1529 1529 1528 1527 1526 1525 1524 1523 1522 1521 1519 1518 1516 1515 1513 1511 1509
1436 1443 1451 1458 1465 1471 1476 1482 1486 1491 1496 1500 1504 1507 1510 1514 1517 1520 1523 1525 1527 1528 1529 1529 1529 1529 1529 1528 1527 1526 1525 1524 1524 1523 1521 1520 1518 1516 1514 1513 1512 1509 1507
1433 1440 1447 1454 1461 1467 1472 1478 1483 1488 1493 1497 1501 1504 1508 1511 1514 1517 1520 1522 1524 1526 1527 1528 1528 1528 1528 1527 1527 1526 1525 1524 1523 1522 1521 1520 1518 1516 1514 1512 1511 1509 1506
1429 1436 1444 1451 1457 1463 1469 1475 1480 1485 1489 1493 1497 1501 1505 1509 1512 1515 1518 1520 1523 1525 1526 1527 1527 1527 1527 1527 1526 1526 1525 1525 1524 1523 1521 1519 1518 1516 1514 1512 1510 1507 1505
1424 1432 1440 1447 1454 1460 1465 1471 1476 1481 1485 1490 1494 1498 1502 1506 1509 1512 1515 1518 1521 1523 1524 1526 1526 1526 1526 1526 1526 1526 1525 1524 1523 1523 1521 1519 1518 1516 1513 1511 1509 1507 1504
Wind_Speed
4 3 4 5 5 4 4 8 12 13 14 18 18 18 17 17 17 16 21 29 31 35 34 37 32 24 18 17 12 13 17 22 19 19 15 15 16 17 18 18 18 21 21
4 4 4 6 4 3 6 6 9 3 0 6 10 14 15 15 15 13 15 28 32 31 28 25 27 24 21 19 14 11 10 14 21 19 17 16 20 20 20 20 19 20 18
5 5 5 3 3 4 1 6 7 4 1 7 8 11 12 13 11 13 17 23 28 25 18 19 18 22 14 16 15 15 17 18 16 18 19 20 19 18 19 20 18 16 14
6 4 5 6 2 3 5 6 8 10 7 8 7 10 10 8 7 8 14 22 16 14 15 15 15 14 12 14 15 17 17 15 14 16 16 16 16 15 14 14 13 13 13
7 6 6 7 7 5 5 3 4 8 11 8 10 11 12 14 18 20 18 17 19 16 13 14 12 10 12 15 16 18 16 16 14 11 9 8 9 9 10 11 13 14 15
9 8 8 9 9 9 9 9 8 11 14 15 16 17 15 13 11 10 9 7 9 11 15 12 8 9 10 10 11 10 6 4 4 5 6 7 8 9 10 13 14 14 14
11 11 12 12 12 10 9 9 11 12 14 17 18 16 14 13 10 9 9 11 13 14 12 10 9 7 5 4 3 2 2 2 4 5 7 8 10 11 13 13 13 14 15
14 15 14 12 11 12 13 14 15 15 15 16 16 15 16 15 13 13 14 16 16 14 12 11 9 8 7 4 2 1 2 3 4 5 5 6 7 10 12 13 14 14 14
18 17 15 15 14 13 14 16 17 17 20 20 19 18 19 21 17 16 16 17 18 18 15 13 9 7 5 2 0 2 2 3 3 2 2 5 5 10 4 2 3 3 4
20 19 15 17 14 12 15 17 18 17 19 19 20 19 19 22 18 17 13 14 16 15 14 11 8 5 2 1 1 2 2 1 1 3 4 6 10 13 10 5 5 4 4
22 20 17 18 14 13 15 16 17 17 18 20 21 21 20 20 20 18 14 14 13 14 12 10 9 7 5 4 2 0 1 2 2 2 5 6 9 8 10 7 6 6 7
25 22 20 18 16 14 15 18 17 18 19 20 20 21 19 18 16 16 16 13 14 11 13 11 8 7 6 5 4 3 3 2 4 3 3 6 8 9 8 6 7 8 7
28 25 22 20 18 16 17 20 20 18 17 18 18 18 19 18 17 15 15 14 14 11 11 9 7 7 7 5 5 3 1 1 3 5 5 7 8 9 7 7 8 8 9
30 28 25 23 22 19 19 18 18 19 18 17 18 18 18 17 15 15 14 12 12 10 9 9 9 10 8 7 6 5 4 2 1 2 4 5 7 7 6 7 7 8 6
32 30 28 25 23 23 20 18 17 16 12 14 15 13 13 15 15 13 12 13 12 9 8 8 9 10 8 6 7 7 6 5 4 4 4 6 7 7 6 6 6 7 7
36 33 31 28 26 25 26 25 21 16 17 16 15 13 15 12 12 13 12 12 9 7 6 6 8 9 6 5 6 7 7 6 6 7 7 8 8 6 5 7 8 8 9
38 36 34 31 29 29 29 27 28 25 19 17 17 15 12 12 12 11 11 11 7 6 4 4 7 9 7 6 7 7 7 6 7 8 9 8 6 5 7 7 8 9 9
38 37 37 33 31 30 28 27 24 23 23 22 19 16 14 14 12 11 10 10 5 5 4 5 8 10 8 7 7 8 8 7 8 9 10 10 9 7 6 7 8 8 7
41 40 36 32 30 28 27 26 23 20 18 18 19 18 16 13 13 11 10 9 3 4 4 4 7 9 8 7 8 8 8 7 7 8 9 9 9 9 7 7 7 8 10
38 36 34 32 31 30 29 27 25 22 20 17 16 15 17 17 15 13 11 9 4 3 4 3 7 10 7 8 9 8 7 7 7 7 8 9 10 7 7 8 10 12 12
39 36 34 33 32 31 30 28 26 23 20 18 16 15 12 11 11 11 10 9 6 1 2 2 6 9 8 8 8 7 6 6 6 6 7 8 7 8 10 11 11 11 11
39 38 36 34 33 32 30 28 26 23 21 20 19 17 16 15 14 12 11 10 7 1 1 1 6 7 7 7 6 6 5 5 6 6 7 8 10 11 9 9 10 12 12
40 38 36 34 32 31 29 28 26 25 23 21 19 19 18 17 16 14 12 10 8 3 1 2 6 6 7 6 5 4 4 5 5 6 7 9 11 10 10 10 11 12 12
40 38 36 35 34 32 30 29 27 25 24 23 21 19 17 17 16 15 14 13 10 6 3 4 6 5 5 4 4 4 4 5 6 7 8 9 9 10 10 11 12 13 14
40 38 37 36 35 33 31 30 28 27 25 24 22 20 18 18 17 16 16 13 11 7 4 5 4 3 3 2 3 4 5 6 7 8 8 8 9 10 12 12 13 14 15
41 38 37 36 34 32 31 30 29 27 26 24 22 21 19 18 17 17 16 14 12 8 4 4 3 1 0 1 3 4 5 7 8 8 8 9 10 11 12 13 14 14 15
Wind_Direction
182 204 229 240 247 257 271 290 277 277 264 246 233 224 223 217 219 227 231 226 233 222 211 203 193 190 179 167 179 220 225 229 245 267 266 253 251 248 247 252 254 257 273
185 195 210 223 227 270 276 330 330 337 271 202 197 210 204 204 204 223 223 223 224 202 184 177 191 186 191 200 211 233 241 258 260 269 266 260 255 248 247 245 252 266 271
173 208 208 187 162 171 130 54 25 36 119 166 165 172 178 186 191 217 214 212 194 176 173 202 209 210 221 221 227 248 275 277 263 262 260 258 252 244 247 253 260 264 262
163 188 152 150 123 112 119 89 56 57 74 81 111 102 121 125 147 168 194 176 162 177 204 205 198 211 218 236 251 270 269 271 260 261 252 247 247 252 259 261 256 253 254
160 158 155 135 145 103 115 66 82 87 81 95 117 122 123 127 138 148 160 157 177 180 179 195 203 223 246 262 265 262 255 255 258 258 252 257 258 256 251 250 250 255 259
167 159 140 139 129 109 91 100 112 117 102 101 135 135 135 139 151 160 167 172 180 190 173 175 192 213 226 234 239 244 232 206 217 227 238 243 248 247 249 249 253 256 263
164 153 136 128 119 113 104 110 108 119 124 123 128 138 138 135 142 151 159 155 165 171 179 182 189 201 186 153 130 135 138 225 247 259 259 260 260 259 258 259 260 262 264
165 155 144 136 130 124 122 114 110 116 128 130 129 132 130 124 129 128 132 137 143 147 151 148 144 135 122 118 134 157 237 261 262 271 276 275 272 271 270 266 265 266 270
169 159 155 149 142 133 130 128 120 120 117 116 113 116 119 114 119 123 132 136 137 134 129 122 117 117 124 121 51 291 298 305 308 312 314 328 352 350 358 283 280 285 299
172 164 160 154 146 144 142 135 130 129 126 126 126 124 124 121 120 118 124 126 128 125 122 122 119 102 80 81 316 296 277 229 138 60 59 28 4 360 353 8 24 29 4
176 170 164 158 158 159 150 145 144 144 141 136 133 128 128 128 127 124 119 119 121 123 117 110 102 86 64 33 30 34 167 163 151 27 341 332 337 337 342 334 327 331 325
180 173 168 168 168 161 159 150 146 145 141 138 135 130 126 123 123 123 122 122 112 109 109 100 80 57 39 24 48 81 124 188 220 247 289 315 324 333 331 318 309 312 315
180 175 175 174 174 168 165 156 152 150 147 143 143 139 137 136 133 130 124 118 113 112 104 90 72 60 57 46 65 116 165 256 251 262 280 300 323 322 317 311 306 306 311
181 179 179 181 173 169 165 162 157 153 154 150 149 148 145 139 133 127 123 119 118 115 100 81 67 51 46 53 53 53 51 51 23 293 298 313 319 319 307 309 311 310 315
183 183 181 182 176 167 162 160 158 151 145 146 148 147 144 139 134 130 128 128 117 105 90 75 58 41 40 46 43 36 30 26 13 5 340 327 326 329 327 326 324 323 328
183 185 185 183 177 170 166 160 156 157 155 154 149 148 144 146 141 135 135 131 98 81 84 72 50 33 38 43 36 23 19 14 6 358 345 332 326 329 340 323 327 333 329
187 185 185 184 180 176 174 171 163 162 162 157 156 154 151 153 147 142 140 135 84 81 99 71 40 31 36 30 19 12 9 7 3 354 343 348 342 335 309 318 328 328 330
189 187 188 181 183 180 178 176 179 177 168 164 162 161 157 158 157 155 152 152 94 73 87 62 32 24 20 14 5 3 4 3 0 358 356 360 1 357 350 338 336 343 344
191 190 188 182 185 182 181 181 181 180 177 172 170 166 164 161 167 167 162 162 141 66 79 51 17 16 7 358 357 360 358 357 355 356 357 357 357 354 351 348 340 336 330
195 193 185 184 185 184 186 185 183 184 182 182 180 178 176 178 181 178 175 173 156 63 60 35 4 7 354 352 351 350 351 349 349 349 352 352 349 354 350 342 338 332 331
190 188 188 187 188 187 189 189 188 188 187 187 186 188 188 189 188 184 183 180 189 133 94 13 9 352 342 344 345 347 346 344 343 344 346 347 352 349 341 333 333 338 337
187 187 188 190 189 190 191 192 191 191 192 192 189 190 191 192 193 192 191 192 202 228 345 302 349 340 337 342 347 350 359 4 6 2 352 348 346 339 342 344 343 339 338
188 188 188 189 191 191 192 194 195 195 195 195 195 198 199 198 198 197 197 199 205 227 300 297 332 333 338 346 352 5 15 18 13 6 356 349 347 356 356 355 348 345 342
190 189 190 190 190 192 193 194 195 196 197 198 199 203 202 202 202 201 202 205 209 224 271 293 323 330 341 355 11 27 32 25 17 7 359 360 8 4 355 355 350 346 342
190 190 192 192 192 193 193 195 196 196 197 200 202 206 204 202 203 206 209 208 210 219 260 287 306 330 343 12 46 53 46 33 17 10 4 5 3 358 357 352 349 348 345
191 191 193 194 195 195 196 196 197 198 200 202 204 207 207 206 206 210 212 212 210 214 254 272 279 313 339 80 80 60 46 28 13 1 2 8 3 356 354 355 348 344 343